TimeCDT,TemperatureF,Dew PointF,Humidity,Sea Level PressureIn,VisibilityMPH,Wind Direction,Wind SpeedMPH,Gust SpeedMPH,PrecipitationIn,Events,Conditions,WindDirDegrees,DateUTC
12:53 AM,55.0,51.1,86,29.76,10.0,Calm,Calm,-,N/A,,Mostly Cloudy,0,2013-04-29 05:53:00
1:53 AM,54.0,48.0,80,29.77,10.0,NW,5.8,-,N/A,,Scattered Clouds,320,2013-04-29 06:53:00
2:53 AM,55.0,45.0,69,29.77,10.0,NNW,8.1,-,N/A,,Clear,330,2013-04-29 07:53:00
3:53 AM,53.1,44.1,71,29.79,10.0,NNW,5.8,-,N/A,,Clear,330,2013-04-29 08:53:00
4:53 AM,51.1,39.0,63,29.80,10.0,North,6.9,-,N/A,,Clear,10,2013-04-29 09:53:00
5:53 AM,48.9,36.0,61,29.81,10.0,North,6.9,-,N/A,,Clear,350,2013-04-29 10:53:00
6:53 AM,48.0,35.1,61,29.81,10.0,North,6.9,-,N/A,,Clear,350,2013-04-29 11:53:00
7:53 AM,50.0,34.0,54,29.82,10.0,North,8.1,-,0.01,,Clear,360,2013-04-29 12:53:00
8:53 AM,53.1,34.0,48,29.81,10.0,North,6.9,-,N/A,,Clear,10,2013-04-29 13:53:00
9:53 AM,55.9,32.0,40,29.79,10.0,ENE,4.6,-,N/A,,Clear,70,2013-04-29 14:53:00
10:53 AM,60.1,33.1,36,29.77,10.0,NE,4.6,-,N/A,,Clear,40,2013-04-29 15:53:00
11:53 AM,64.0,35.1,34,29.75,10.0,Variable,3.5,-,N/A,,Clear,0,2013-04-29 16:53:00
12:53 PM,66.9,37.0,33,29.72,10.0,Variable,4.6,-,N/A,,Clear,0,2013-04-29 17:53:00
1:53 PM,70.0,37.0,30,29.70,10.0,East,6.9,-,N/A,,Clear,80,2013-04-29 18:53:00
2:53 PM,72.0,39.0,30,29.66,10.0,ENE,5.8,-,N/A,,Clear,60,2013-04-29 19:53:00
3:53 PM,73.0,41.0,31,29.63,10.0,ESE,5.8,-,N/A,,Clear,120,2013-04-29 20:53:00
4:53 PM,73.0,45.0,37,29.62,10.0,SSE,8.1,-,N/A,,Clear,150,2013-04-29 21:53:00
5:53 PM,73.0,46.0,38,29.60,10.0,South,8.1,-,N/A,,Clear,170,2013-04-29 22:53:00
6:53 PM,72.0,46.0,40,29.59,10.0,SSW,10.4,-,N/A,,Clear,200,2013-04-29 23:53:00
7:53 PM,70.0,48.9,47,29.58,10.0,Calm,Calm,-,N/A,,Clear,0,2013-04-30 00:53:00
8:53 PM,64.9,50.0,58,29.58,10.0,Calm,Calm,-,N/A,,Mostly Cloudy,0,2013-04-30 01:53:00
9:53 PM,66.9,55.0,66,29.57,10.0,SE,6.9,-,N/A,,Partly Cloudy,130,2013-04-30 02:53:00
10:53 PM,64.9,55.0,70,29.55,10.0,SE,9.2,-,N/A,,Clear,140,2013-04-30 03:53:00
11:53 PM,64.9,55.0,70,29.54,9.0,SSE,9.2,-,N/A,,Partly Cloudy,150,2013-04-30 04:53:00